STARLINK-34319, 64268

Orbit data source: Space-Track

STARLINK-34319, 64268 is a payload satellite owned by SpaceX/Seattle (US) in LEO that was launched on Wed, 04 Jun 2025 UTC via an FALCON 9 launch vehicle from the Air Force Western Test Range (AFWTR). Payload-class satellites include a variety of spacecraft equipped with specific instruments for various scientific and technological missions. These include communications satellites like Starlink; space stations such as the ISS; scientific satellites like the Hubble; Earth observation satellites from companies like Planet Labs, Umbra, and HawkEye 360; GPS; miniature CubeSats for education and research; and military/defense satellites.

Loading next visibility...
Identifier
64268, 2025-120N
Orbit
LEO
Country
Flag of USUS
Related business
Manufacturer
SpaceX/Seattle
Mission
Operational Commercial Communications
Bus & Motor
STARLINK V2MO, Unknown motor
Mass
575 kg wet, ~530 kg dry
Launch date (UTC)
2025-06-04 (1 year ago)
Launch vehicle
FALCON 9
Launch site
Air Force Western Test Range (AFWTR)
Object type
Payload
Rocket body
Debris
Shape & HBR
Box + 2 Pan, 17.7 m
Radar Cross Section
36.964 m², Large (>1 m²)

Expand to show TLE details & history
Last TLE update: 20 hours ago

TLE from 20 hours ago
0 STARLINK-34319
1 64268U 25120N   26171.00830657  .00023579  00000-0  70665-3 0  9995
2 64268  53.1591 358.4470 0001104  71.5166 288.5956 15.34406814 59615
Epoch: 2026-06-20T00:11Z
TLE epoch observation values (Epoch: 2026-06-20T00:11:57.687Z)
Latitude
-0.00007°
Longitude
87.22749°
Altitude
463.343 km
Speed
7.636 km/s
True Right ascension
23h 53m 47s
True Declination
0° 00' 00"
Sunlit
Object was in daylight at epoch
Visualization orbit readout
Latitude
Unknown
Longitude
Unknown
Altitude
Unknown
Speed
Unknown
Apparent Right ascension
Unknown
Apparent Declination
Unknown
Sunlit
N/A
Visualization observer readout
Local Sidereal Time
07:15:59
Azimuth
Unknown
Elevation
Unknown
Doppler factor
Unknown
Orbital elements
Apogee altitude
463.695 km
Perigee altitude
462.185 km
Semi-major axis
6,841.077 km
Eccentricity
0.00011
Inclination
53.1591°
RAAN
358.447°
Arg. of periapsis
71.5166°
True anomaly
288.58361°
Mean anomaly
288.5956°
Eccentric anomaly
288.5896°
Mean motion
3.8358 °/min
Orbital period
93.85 mins
BSTAR
0.00070665
Loading maneuver chart data...
Computing Atmospheric mass density...
Loading historical data...
Loading historical data...
Loading historical data...
Loading historical data...
Loading historical data...
Loading historical data...
Loading historical data...

Documentation

Showing up to 5 results
|